Station Historical Data
Daily Summary for June 7, 2017 Units:  English    Metric   Both
« Previous Day
Next Day »
Daily Weekly Monthly Yearly Custom
  High: Low: Average:
Temperature: 70.8 °F 50.9 °F 59.7 °F
Dew Point: 53.5 °F 44.5 °F 48.3 °F
Humidity: 92% 41% 69%
Wind Speed: 13.0mph 0.0mph 3.4mph
Wind Gust: 17.0mph - -
Wind- - ENE
Pressure: 30.10 in 29.98 in -
Precipitation: 0.00 in    
Historical Graphs
 
 
Tabular Data for June 7, 2017
Time Temperature Dew Point Pressure Wind Wind Speed Wind Gust Humidity Rainfall Rate (Hourly)
00:04 51.2 °F 49.0 °F 29.98 in NE 2.0 mph 9.0 mph 92% 0.01 in
00:09 51.2 °F 49.0 °F 29.98 in NE 2.0 mph 8.0 mph 92% 0.01 in
00:14 51.2 °F 49.0 °F 29.98 in NE 1.0 mph 3.0 mph 92% 0.01 in
00:19 51.1 °F 48.9 °F 29.98 in ENE 1.0 mph 8.0 mph 92% 0.01 in
00:24 51.0 °F 48.8 °F 29.99 in NNE 2.0 mph 9.0 mph 92% 0.01 in
00:29 51.0 °F 48.8 °F 29.98 in NE 1.0 mph 5.0 mph 92% 0.01 in
00:34 51.0 °F 48.8 °F 29.99 in NE 3.0 mph 8.0 mph 92% 0.01 in
00:39 51.0 °F 48.8 °F 29.99 in NE 3.0 mph 8.0 mph 92% 0.01 in
00:44 51.0 °F 48.8 °F 29.99 in NE 3.0 mph 8.0 mph 92% 0.01 in
00:49 51.0 °F 48.8 °F 29.99 in ENE 2.0 mph 8.0 mph 92% 0.00 in
00:54 51.0 °F 48.8 °F 29.98 in NE 3.0 mph 7.0 mph 92% 0.00 in
00:59 51.1 °F 48.9 °F 29.98 in NE 3.0 mph 5.0 mph 92% 0.00 in
01:04 51.0 °F 48.8 °F 29.98 in NE 3.0 mph 6.0 mph 92% 0.00 in
01:09 51.0 °F 48.8 °F 29.98 in NE 4.0 mph 11.0 mph 92% 0.00 in
01:14 51.0 °F 48.8 °F 29.98 in NE 4.0 mph 11.0 mph 92% 0.00 in
01:19 51.0 °F 48.8 °F 29.98 in ENE 4.0 mph 9.0 mph 92% 0.00 in
01:24 51.1 °F 48.9 °F 29.98 in ESE 7.0 mph 9.0 mph 92% 0.00 in
01:29 51.0 °F 48.8 °F 29.98 in NE 1.0 mph 9.0 mph 92% 0.00 in
01:34 51.1 °F 48.9 °F 29.98 in NE 3.0 mph 9.0 mph 92% 0.00 in
01:39 51.2 °F 49.0 °F 29.99 in NE 2.0 mph 7.0 mph 92% 0.00 in
01:44 51.2 °F 49.0 °F 29.99 in NE 2.0 mph 4.0 mph 92% 0.00 in
01:49 51.1 °F 48.9 °F 29.98 in ENE 3.0 mph 3.0 mph 92% 0.00 in
01:54 51.2 °F 49.0 °F 29.98 in North 1.0 mph 5.0 mph 92% 0.00 in
01:59 51.2 °F 49.0 °F 29.98 in Calm   4.0 mph 92% 0.00 in
02:04 51.2 °F 49.0 °F 29.98 in NE 2.0 mph 4.0 mph 92% 0.00 in
02:09 51.2 °F 49.0 °F 29.98 in NE 2.0 mph 7.0 mph 92% 0.00 in
02:14 51.2 °F 49.0 °F 29.99 in NE 2.0 mph 7.0 mph 92% 0.00 in
02:19 51.2 °F 49.0 °F 29.99 in NNW 6.0 mph 6.0 mph 92% 0.00 in
02:24 51.2 °F 49.0 °F 29.98 in NNW 1.0 mph 7.0 mph 92% 0.00 in
02:29 51.2 °F 49.0 °F 29.99 in NNW 1.0 mph 3.0 mph 92% 0.00 in
02:34 51.2 °F 49.0 °F 29.99 in North 1.0 mph 5.0 mph 92% 0.00 in
02:39 51.2 °F 49.0 °F 29.98 in NE 1.0 mph 5.0 mph 92% 0.00 in
02:44 51.2 °F 49.0 °F 29.98 in NE 2.0 mph 3.0 mph 92% 0.00 in
02:49 51.1 °F 48.9 °F 29.98 in NE 3.0 mph 3.0 mph 92% 0.00 in
02:54 51.1 °F 48.9 °F 29.98 in NNE 3.0 mph 4.0 mph 92% 0.00 in
02:59 51.1 °F 48.9 °F 29.98 in NE 2.0 mph 5.0 mph 92% 0.00 in
03:04 51.1 °F 48.9 °F 29.99 in NE 2.0 mph 5.0 mph 92% 0.00 in
03:09 51.1 °F 48.9 °F 29.98 in NE 2.0 mph 4.0 mph 92% 0.00 in
03:14 51.0 °F 48.8 °F 29.99 in NE 2.0 mph 7.0 mph 92% 0.00 in
03:19 51.0 °F 48.8 °F 29.99 in NE 3.0 mph 7.0 mph 92% 0.00 in
03:24 51.1 °F 48.9 °F 29.99 in Calm   9.0 mph 92% 0.00 in
03:29 51.0 °F 48.8 °F 29.99 in NNE 1.0 mph 8.0 mph 92% 0.00 in
03:34 51.0 °F 48.8 °F 29.99 in NE 3.0 mph 8.0 mph 92% 0.00 in
03:39 51.0 °F 48.8 °F 29.99 in NE 2.0 mph 10.0 mph 92% 0.00 in
03:44 50.9 °F 48.7 °F 29.99 in ENE 2.0 mph 5.0 mph 92% 0.00 in
03:49 51.0 °F 48.8 °F 29.99 in NNE 2.0 mph 4.0 mph 92% 0.00 in
03:54 51.0 °F 48.8 °F 29.99 in NNE 1.0 mph 4.0 mph 92% 0.00 in
03:59 51.0 °F 48.8 °F 29.99 in North 2.0 mph 7.0 mph 92% 0.00 in
04:04 51.0 °F 48.8 °F 29.99 in North 2.0 mph 7.0 mph 92% 0.00 in
04:09 51.0 °F 48.8 °F 30.00 in NNE 2.0 mph 7.0 mph 92% 0.00 in
04:14 51.0 °F 48.8 °F 30.00 in NNE 2.0 mph 7.0 mph 92% 0.00 in
04:19 50.9 °F 48.7 °F 30.00 in North 2.0 mph 6.0 mph 92% 0.00 in
04:24 50.9 °F 48.7 °F 30.00 in Calm   6.0 mph 92% 0.00 in
04:29 50.9 °F 48.7 °F 30.00 in Calm   4.0 mph 92% 0.00 in
04:34 51.0 °F 48.8 °F 30.00 in NNW 1.0 mph 4.0 mph 92% 0.00 in
04:39 51.0 °F 48.8 °F 30.00 in NNW 1.0 mph 4.0 mph 92% 0.00 in
04:44 51.0 °F 48.8 °F 30.00 in NNW 1.0 mph 3.0 mph 92% 0.00 in
04:49 50.9 °F 48.7 °F 30.00 in Calm   4.0 mph 92% 0.00 in
04:54 51.0 °F 48.8 °F 30.00 in NNE 1.0 mph 4.0 mph 92% 0.00 in
04:59 51.0 °F 48.8 °F 30.00 in Calm   3.0 mph 92% 0.00 in
05:04 51.0 °F 48.8 °F 30.01 in NNE 1.0 mph 3.0 mph 92% 0.00 in
05:09 51.0 °F 48.8 °F 30.01 in North 1.0 mph 3.0 mph 92% 0.00 in
05:14 51.1 °F 48.9 °F 30.01 in NNW 2.0 mph 3.0 mph 92% 0.00 in
05:19 51.1 °F 48.9 °F 30.01 in NNW 1.0 mph 3.0 mph 92% 0.00 in
05:24 51.1 °F 48.9 °F 30.01 in WNW 2.0 mph 7.0 mph 92% 0.00 in
05:29 51.2 °F 49.0 °F 30.01 in Calm   5.0 mph 92% 0.00 in
05:34 51.2 °F 49.0 °F 30.02 in NNE 1.0 mph 4.0 mph 92% 0.00 in
05:39 51.1 °F 48.9 °F 30.02 in NNE 3.0 mph 7.0 mph 92% 0.00 in
05:44 51.1 °F 48.6 °F 30.02 in NE 3.0 mph 7.0 mph 91% 0.00 in
05:49 51.1 °F 48.6 °F 30.02 in NNE 2.0 mph 7.0 mph 91% 0.00 in
05:54 51.2 °F 48.7 °F 30.02 in NNE 2.0 mph 4.0 mph 91% 0.00 in
05:59 51.1 °F 48.9 °F 30.02 in NNE 3.0 mph 8.0 mph 92% 0.00 in
06:04 51.1 °F 48.6 °F 30.03 in NNE 1.0 mph 6.0 mph 91% 0.00 in
06:09 51.2 °F 49.0 °F 30.03 in NNW 2.0 mph 5.0 mph 92% 0.00 in
06:14 51.1 °F 48.6 °F 30.03 in NNE 2.0 mph 6.0 mph 91% 0.00 in
06:19 51.2 °F 48.7 °F 30.04 in NNE 3.0 mph 4.0 mph 91% 0.00 in
06:24 51.2 °F 48.7 °F 30.04 in NE 6.0 mph 8.0 mph 91% 0.00 in
06:29 51.0 °F 48.5 °F 30.04 in NNE 3.0 mph 11.0 mph 91% 0.00 in
06:34 51.1 °F 48.6 °F 30.04 in NE 2.0 mph 8.0 mph 91% 0.00 in
06:39 51.0 °F 48.5 °F 30.04 in NNE 4.0 mph 12.0 mph 91% 0.00 in
06:44 51.1 °F 48.3 °F 30.05 in NE 4.0 mph 12.0 mph 90% 0.00 in
06:49 51.0 °F 48.2 °F 30.05 in NE 4.0 mph 11.0 mph 90% 0.00 in
06:54 51.0 °F 47.9 °F 30.05 in NE 5.0 mph 11.0 mph 89% 0.00 in
06:59 51.2 °F 48.1 °F 30.05 in NE 5.0 mph 13.0 mph 89% 0.00 in
07:04 51.2 °F 48.1 °F 30.05 in NE 2.0 mph 10.0 mph 89% 0.00 in
07:09 51.2 °F 48.1 °F 30.05 in NE 3.0 mph 10.0 mph 89% 0.00 in
07:14 51.5 °F 48.4 °F 30.05 in NE 3.0 mph 10.0 mph 89% 0.00 in
07:19 51.6 °F 47.9 °F 30.05 in NE 7.0 mph 13.0 mph 87% 0.00 in
07:24 51.9 °F 48.2 °F 30.05 in NE 5.0 mph 7.0 mph 87% 0.00 in
07:29 52.3 °F 48.2 °F 30.05 in NE 13.0 mph 15.0 mph 86% 0.00 in
07:34 52.4 °F 48.0 °F 30.06 in NNE 8.0 mph 12.0 mph 85% 0.00 in
07:39 52.4 °F 48.0 °F 30.06 in NE 5.0 mph 14.0 mph 85% 0.00 in
07:44 52.7 °F 48.3 °F 30.06 in NE 6.0 mph 17.0 mph 85% 0.00 in
07:49 52.8 °F 48.4 °F 30.06 in NE 6.0 mph 17.0 mph 85% 0.00 in
07:54 52.7 °F 48.0 °F 30.06 in ENE 6.0 mph 11.0 mph 84% 0.00 in
07:59 52.8 °F 48.1 °F 30.07 in NE 4.0 mph 11.0 mph 84% 0.00 in
08:04 53.0 °F 48.3 °F 30.07 in NE 7.0 mph 11.0 mph 84% 0.00 in
08:09 52.8 °F 47.8 °F 30.07 in NE 5.0 mph 13.0 mph 83% 0.00 in
08:14 52.7 °F 48.0 °F 30.08 in ENE 7.0 mph 13.0 mph 84% 0.00 in
08:19 52.9 °F 47.9 °F 30.07 in ENE 7.0 mph 14.0 mph 83% 0.00 in
08:24 53.0 °F 47.7 °F 30.07 in NE 7.0 mph 14.0 mph 82% 0.00 in
08:29 52.9 °F 47.6 °F 30.08 in NE 7.0 mph 14.0 mph 82% 0.00 in
08:34 53.4 °F 47.7 °F 30.08 in NE 8.0 mph 14.0 mph 81% 0.00 in
08:39 53.4 °F 47.4 °F 30.08 in NE 6.0 mph 13.0 mph 80% 0.00 in
08:44 53.5 °F 47.5 °F 30.08 in NE 5.0 mph 14.0 mph 80% 0.00 in
08:49 53.6 °F 47.6 °F 30.08 in ENE 9.0 mph 11.0 mph 80% 0.00 in
08:54 53.7 °F 47.7 °F 30.08 in ENE 5.0 mph 12.0 mph 80% 0.00 in
08:59 53.7 °F 47.7 °F 30.09 in NE 6.0 mph 11.0 mph 80% 0.00 in
09:04 55.0 °F 48.6 °F 30.09 in East 7.0 mph 14.0 mph 79% 0.00 in
09:09 56.0 °F 49.2 °F 30.09 in ENE 6.0 mph 14.0 mph 78% 0.00 in
09:14 56.5 °F 49.0 °F 30.09 in ENE 5.0 mph 11.0 mph 76% 0.00 in
09:19 56.1 °F 48.6 °F 30.09 in NE 5.0 mph 11.0 mph 76% 0.00 in
09:24 56.4 °F 48.6 °F 30.09 in NE 6.0 mph 12.0 mph 75% 0.00 in
09:29 56.1 °F 48.6 °F 30.09 in NNE 7.0 mph 10.0 mph 76% 0.00 in
09:34 56.9 °F 49.1 °F 30.10 in NE 5.0 mph 10.0 mph 75% 0.00 in
09:39 57.3 °F 49.4 °F 30.09 in ENE 4.0 mph 9.0 mph 75% 0.00 in
09:44 57.3 °F 48.7 °F 30.10 in ENE 5.0 mph 10.0 mph 73% 0.00 in
09:49 58.2 °F 49.6 °F 30.10 in East 1.0 mph 10.0 mph 73% 0.00 in
09:54 58.3 °F 49.3 °F 30.09 in NE 4.0 mph 9.0 mph 72% 0.00 in
09:59 57.7 °F 48.4 °F 30.09 in NE 7.0 mph 13.0 mph 71% 0.00 in
10:04 58.2 °F 50.0 °F 30.09 in NE 4.0 mph 8.0 mph 74% 0.00 in
10:09 58.6 °F 49.6 °F 30.09 in ENE 5.0 mph 10.0 mph 72% 0.00 in
10:14 59.1 °F 50.1 °F 30.09 in ENE 5.0 mph 11.0 mph 72% 0.00 in
10:19 59.1 °F 49.7 °F 30.09 in ENE 6.0 mph 12.0 mph 71% 0.00 in
10:24 60.2 °F 51.1 °F 30.09 in ENE 5.0 mph 12.0 mph 72% 0.00 in
10:29 60.0 °F 49.8 °F 30.09 in NE 5.0 mph 12.0 mph 69% 0.00 in
10:34 60.4 °F 51.0 °F 30.09 in ENE 5.0 mph 10.0 mph 71% 0.00 in
10:39 60.5 °F 50.3 °F 30.09 in ENE 6.0 mph 11.0 mph 69% 0.00 in
10:44 60.7 °F 50.5 °F 30.09 in ENE 12.0 mph 14.0 mph 69% 0.00 in
10:49 61.1 °F 50.5 °F 30.09 in NE 6.0 mph 12.0 mph 68% 0.00 in
10:54 61.4 °F 51.1 °F 30.09 in NE 4.0 mph 10.0 mph 69% 0.00 in
10:59 62.2 °F 51.1 °F 30.09 in ENE 5.0 mph 11.0 mph 67% 0.00 in
11:04 62.3 °F 50.4 °F 30.09 in NE 2.0 mph 11.0 mph 65% 0.00 in
11:09 63.1 °F 52.0 °F 30.09 in ENE 5.0 mph 11.0 mph 67% 0.00 in
11:14 62.9 °F 50.1 °F 30.09 in NE 6.0 mph 13.0 mph 63% 0.00 in
11:19 62.6 °F 51.1 °F 30.09 in NE 6.0 mph 13.0 mph 66% 0.00 in
11:24 63.3 °F 51.7 °F 30.09 in NE 5.0 mph 12.0 mph 66% 0.00 in
11:29 64.1 °F 52.5 °F 30.09 in NNE 5.0 mph 9.0 mph 66% 0.00 in
11:39 63.9 °F 50.6 °F 30.09 in ENE 7.0 mph 13.0 mph 62% 0.00 in
11:49 64.2 °F 49.6 °F 30.09 in NE 6.0 mph 13.0 mph 59% 0.00 in
11:54 64.3 °F 50.1 °F 30.09 in ENE 7.0 mph 15.0 mph 60% 0.00 in
11:59 65.0 °F 50.8 °F 30.08 in ENE 6.0 mph 15.0 mph 60% 0.00 in
12:04 65.0 °F 51.2 °F 30.08 in NE 2.0 mph 14.0 mph 61% 0.00 in
12:09 65.8 °F 52.0 °F 30.08 in NNE 5.0 mph 9.0 mph 61% 0.00 in
12:14 65.9 °F 51.2 °F 30.08 in NE 5.0 mph 9.0 mph 59% 0.00 in
12:19 66.1 °F 50.4 °F 30.08 in ENE 5.0 mph 11.0 mph 57% 0.00 in
12:24 66.3 °F 49.6 °F 30.08 in SE 3.0 mph 13.0 mph 55% 0.00 in
12:29 66.4 °F 50.2 °F 30.08 in ENE 4.0 mph 14.0 mph 56% 0.00 in
12:34 66.7 °F 50.5 °F 30.08 in NE 3.0 mph 11.0 mph 56% 0.00 in
12:39 66.8 °F 50.6 °F 30.08 in NE 2.0 mph 11.0 mph 56% 0.00 in
12:44 67.2 °F 51.0 °F 30.08 in East 8.0 mph 10.0 mph 56% 0.00 in
12:49 66.7 °F 50.5 °F 30.08 in ENE 5.0 mph 12.0 mph 56% 0.00 in
12:54 66.6 °F 49.9 °F 30.08 in NE 6.0 mph 14.0 mph 55% 0.00 in
12:59 67.4 °F 50.7 °F 30.08 in ENE 5.0 mph 14.0 mph 55% 0.00 in
13:04 67.4 °F 52.1 °F 30.08 in ENE 4.0 mph 17.0 mph 58% 0.00 in
13:09 67.1 °F 51.4 °F 30.08 in NE 5.0 mph 15.0 mph 57% 0.00 in
13:14 67.2 °F 52.4 °F 30.08 in NE 5.0 mph 15.0 mph 59% 0.00 in
13:19 68.0 °F 51.2 °F 30.08 in NE 5.0 mph 11.0 mph 55% 0.00 in
13:24 67.7 °F 50.5 °F 30.08 in NE 3.0 mph 11.0 mph 54% 0.00 in
13:29 68.5 °F 51.7 °F 30.07 in NE 5.0 mph 14.0 mph 55% 0.00 in
13:34 68.1 °F 51.3 °F 30.07 in North 4.0 mph 11.0 mph 55% 0.00 in
13:39 67.2 °F 50.0 °F 30.08 in NE 11.0 mph 17.0 mph 54% 0.00 in
13:44 67.4 °F 49.7 °F 30.08 in NE 7.0 mph 17.0 mph 53% 0.00 in
13:49 68.4 °F 53.5 °F 30.07 in NE 5.0 mph 13.0 mph 59% 0.00 in
13:54 67.7 °F 49.4 °F 30.07 in NE 5.0 mph 13.0 mph 52% 0.00 in
13:59 68.4 °F 50.6 °F 30.08 in NE 6.0 mph 13.0 mph 53% 0.00 in
14:04 68.8 °F 49.9 °F 30.07 in ENE 6.0 mph 12.0 mph 51% 0.00 in
14:09 68.2 °F 49.9 °F 30.07 in ENE 6.0 mph 12.0 mph 52% 0.00 in
14:14 67.8 °F 48.5 °F 30.07 in NNE 3.0 mph 10.0 mph 50% 0.00 in
14:19 68.3 °F 50.0 °F 30.07 in ENE 5.0 mph 12.0 mph 52% 0.00 in
14:24 68.8 °F 51.0 °F 30.07 in NNE 4.0 mph 12.0 mph 53% 0.00 in
14:29 67.2 °F 47.9 °F 30.07 in NE 5.0 mph 11.0 mph 50% 0.00 in
14:34 66.9 °F 50.7 °F 30.07 in Calm   10.0 mph 56% 0.00 in
14:39 69.1 °F 50.7 °F 30.07 in ENE 8.0 mph 8.0 mph 52% 0.00 in
14:44 69.0 °F 49.0 °F 30.07 in ENE 4.0 mph 15.0 mph 49% 0.00 in
14:49 69.1 °F 50.2 °F 30.07 in ENE 5.0 mph 15.0 mph 51% 0.00 in
14:54 68.5 °F 46.3 °F 30.07 in ENE 6.0 mph 15.0 mph 45% 0.00 in
14:59 69.2 °F 49.8 °F 30.07 in ENE 7.0 mph 15.0 mph 50% 0.00 in
15:04 69.5 °F 48.9 °F 30.07 in ENE 6.0 mph 13.0 mph 48% 0.00 in
15:09 69.6 °F 47.9 °F 30.07 in NNE 4.0 mph 10.0 mph 46% 0.00 in
15:14 70.0 °F 51.0 °F 30.06 in NNE 2.0 mph 11.0 mph 51% 0.00 in
15:19 69.5 °F 48.9 °F 30.06 in NE 5.0 mph 12.0 mph 48% 0.00 in
15:24 68.0 °F 47.6 °F 30.06 in NE 5.0 mph 13.0 mph 48% 0.00 in
15:29 69.2 °F 49.8 °F 30.06 in ENE 7.0 mph 13.0 mph 50% 0.00 in
15:34 69.9 °F 48.7 °F 30.06 in ENE 5.0 mph 9.0 mph 47% 0.00 in
15:39 70.5 °F 48.1 °F 30.06 in ENE 9.0 mph 11.0 mph 45% 0.00 in
15:44 70.1 °F 48.9 °F 30.06 in NE 9.0 mph 10.0 mph 47% 0.00 in
15:49 70.1 °F 51.1 °F 30.06 in ENE 7.0 mph 11.0 mph 51% 0.00 in
15:54 69.6 °F 49.0 °F 30.05 in NE 5.0 mph 15.0 mph 48% 0.00 in
15:59 68.9 °F 48.9 °F 30.05 in NE 6.0 mph 15.0 mph 49% 0.00 in
16:04 69.4 °F 51.5 °F 30.05 in NE 1.0 mph 8.0 mph 53% 0.00 in
16:09 69.9 °F 50.4 °F 30.05 in NE 2.0 mph 7.0 mph 50% 0.00 in
16:14 70.0 °F 48.8 °F 30.05 in ENE 3.0 mph 12.0 mph 47% 0.00 in
16:19 69.7 °F 47.4 °F 30.05 in ENE 4.0 mph 8.0 mph 45% 0.00 in
16:24 69.9 °F 47.0 °F 30.04 in ENE 4.0 mph 8.0 mph 44% 0.00 in
16:29 70.8 °F 48.4 °F 30.04 in ENE 3.0 mph 8.0 mph 45% 0.00 in
16:34 70.7 °F 48.3 °F 30.05 in ENE 3.0 mph 9.0 mph 45% 0.00 in
16:39 70.4 °F 49.2 °F 30.05 in ESE 4.0 mph 8.0 mph 47% 0.00 in
16:44 70.5 °F 47.5 °F 30.05 in East 3.0 mph 10.0 mph 44% 0.00 in
16:49 70.6 °F 47.0 °F 30.05 in NNE 5.0 mph 10.0 mph 43% 0.00 in
16:54 70.3 °F 48.5 °F 30.05 in NNE 4.0 mph 10.0 mph 46% 0.00 in
16:59 70.3 °F 48.5 °F 30.05 in NNE 2.0 mph 11.0 mph 46% 0.00 in
17:04 69.9 °F 45.8 °F 30.05 in NE 4.0 mph 8.0 mph 42% 0.00 in
17:09 69.7 °F 44.9 °F 30.04 in East 3.0 mph 11.0 mph 41% 0.00 in
17:14 70.2 °F 49.0 °F 30.04 in NNE 6.0 mph 8.0 mph 47% 0.00 in
17:19 70.1 °F 46.6 °F 30.05 in NE 5.0 mph 11.0 mph 43% 0.00 in
17:24 70.3 °F 47.9 °F 30.04 in NE 4.0 mph 11.0 mph 45% 0.00 in
17:29 70.6 °F 48.8 °F 30.04 in NNE 3.0 mph 7.0 mph 46% 0.00 in
17:34 70.6 °F 47.0 °F 30.04 in NE 3.0 mph 9.0 mph 43% 0.00 in
17:39 70.8 °F 47.2 °F 30.04 in NE 4.0 mph 9.0 mph 43% 0.00 in
17:44 70.6 °F 46.4 °F 30.04 in ENE 9.0 mph 12.0 mph 42% 0.00 in
17:49 70.0 °F 45.8 °F 30.04 in NE 5.0 mph 12.0 mph 42% 0.00 in
17:54 70.0 °F 47.1 °F 30.04 in NE 5.0 mph 12.0 mph 44% 0.00 in
17:59 70.3 °F 46.1 °F 30.04 in ENE 4.0 mph 8.0 mph 42% 0.00 in
18:04 70.3 °F 46.1 °F 30.04 in ENE 4.0 mph 9.0 mph 42% 0.00 in
18:09 69.9 °F 47.0 °F 30.04 in NE 4.0 mph 9.0 mph 44% 0.00 in
18:14 70.0 °F 47.1 °F 30.04 in North 2.0 mph 4.0 mph 44% 0.00 in
18:19 69.9 °F 47.0 °F 30.03 in North 3.0 mph 8.0 mph 44% 0.00 in
18:24 69.8 °F 47.5 °F 30.04 in NNE 4.0 mph 6.0 mph 45% 0.00 in
18:29 69.4 °F 45.9 °F 30.03 in NNE 3.0 mph 8.0 mph 43% 0.00 in
18:34 69.2 °F 47.5 °F 30.03 in NE 3.0 mph 8.0 mph 46% 0.00 in
18:39 68.9 °F 47.3 °F 30.03 in ENE 4.0 mph 13.0 mph 46% 0.00 in
18:44 68.6 °F 48.1 °F 30.03 in ENE 10.0 mph 12.0 mph 48% 0.00 in
18:49 68.4 °F 47.9 °F 30.03 in NNE 3.0 mph 12.0 mph 48% 0.00 in
18:54 68.3 °F 48.9 °F 30.03 in NE 5.0 mph 9.0 mph 50% 0.00 in
18:59 68.1 °F 47.7 °F 30.04 in NE 4.0 mph 9.0 mph 48% 0.00 in
19:04 67.9 °F 48.0 °F 30.04 in NE 5.0 mph 9.0 mph 49% 0.00 in
19:09 67.7 °F 47.8 °F 30.04 in NNE 2.0 mph 4.0 mph 49% 0.00 in
19:14 67.7 °F 47.3 °F 30.04 in NE 3.0 mph 7.0 mph 48% 0.00 in
19:19 67.2 °F 47.4 °F 30.04 in NNE 2.0 mph 7.0 mph 49% 0.00 in
19:24 66.9 °F 46.6 °F 30.04 in NNW 1.0 mph 4.0 mph 48% 0.00 in
19:29 66.7 °F 46.4 °F 30.04 in NNE 2.0 mph 4.0 mph 48% 0.00 in
19:34 66.6 °F 45.7 °F 30.04 in NNE 3.0 mph 7.0 mph 47% 0.00 in
19:39 66.7 °F 45.8 °F 30.04 in NE 3.0 mph 9.0 mph 47% 0.00 in
19:44 66.3 °F 46.0 °F 30.05 in NE 3.0 mph 9.0 mph 48% 0.00 in
19:49 66.1 °F 45.3 °F 30.05 in ENE 4.0 mph 8.0 mph 47% 0.00 in
19:54 66.0 °F 45.7 °F 30.05 in NE 2.0 mph 7.0 mph 48% 0.00 in
19:59 65.9 °F 44.5 °F 30.05 in NE 4.0 mph 9.0 mph 46% 0.00 in
20:04 65.8 °F 45.0 °F 30.05 in NE 4.0 mph 9.0 mph 47% 0.00 in
20:09 65.4 °F 44.6 °F 30.05 in NE 4.0 mph 10.0 mph 47% 0.00 in
20:14 65.3 °F 44.5 °F 30.05 in NE 4.0 mph 10.0 mph 47% 0.00 in
20:19 64.9 °F 44.7 °F 30.05 in ENE 4.0 mph 7.0 mph 48% 0.00 in
20:24 64.7 °F 44.5 °F 30.05 in NE 1.0 mph 5.0 mph 48% 0.00 in
20:29 64.5 °F 44.9 °F 30.05 in NE 2.0 mph 5.0 mph 49% 0.00 in
20:34 64.2 °F 45.2 °F 30.05 in NE 2.0 mph 6.0 mph 50% 0.00 in
20:39 63.7 °F 45.2 °F 30.05 in NNE 2.0 mph 6.0 mph 51% 0.00 in
20:44 63.4 °F 44.9 °F 30.05 in NNE 2.0 mph 5.0 mph 51% 0.00 in
20:49 63.4 °F 44.9 °F 30.05 in NE 3.0 mph 4.0 mph 51% 0.00 in
20:54 63.2 °F 44.8 °F 30.05 in Calm   4.0 mph 51% 0.00 in
20:59 63.0 °F 45.1 °F 30.05 in Calm   4.0 mph 52% 0.00 in
21:04 62.6 °F 45.7 °F 30.05 in NE 1.0 mph 4.0 mph 54% 0.00 in
21:09 61.9 °F 45.5 °F 30.05 in Calm   1.0 mph 55% 0.00 in
21:14 61.8 °F 45.5 °F 30.05 in NE 1.0 mph 4.0 mph 55% 0.00 in
21:19 61.5 °F 45.2 °F 30.05 in Calm   1.0 mph 55% 0.00 in
21:24 61.3 °F 45.0 °F 30.05 in Calm   3.0 mph 55% 0.00 in
21:29 61.1 °F 45.7 °F 30.05 in Calm   2.0 mph 57% 0.00 in
21:34 60.8 °F 45.5 °F 30.05 in Calm   2.0 mph 57% 0.00 in
21:39 60.5 °F 45.6 °F 30.05 in Calm     58% 0.00 in
21:44 60.3 °F 45.5 °F 30.05 in Calm     58% 0.00 in
21:49 60.4 °F 45.5 °F 30.05 in Calm     58% 0.00 in
21:54 59.9 °F 46.0 °F 30.06 in Calm     60% 0.00 in
21:59 59.8 °F 45.4 °F 30.06 in Calm     59% 0.00 in
22:04 59.6 °F 45.7 °F 30.06 in Calm     60% 0.00 in
22:09 59.8 °F 45.9 °F 30.06 in NE 3.0 mph 3.0 mph 60% 0.00 in
22:14 59.7 °F 45.8 °F 30.06 in Calm   3.0 mph 60% 0.00 in
22:19 59.9 °F 45.5 °F 30.07 in NE 1.0 mph 3.0 mph 59% 0.00 in
22:24 60.0 °F 45.6 °F 30.07 in Calm   3.0 mph 59% 0.00 in
22:29 59.8 °F 45.9 °F 30.07 in Calm   1.0 mph 60% 0.00 in
22:34 59.0 °F 45.6 °F 30.07 in Calm   1.0 mph 61% 0.00 in
22:39 59.1 °F 45.7 °F 30.07 in Calm   4.0 mph 61% 0.00 in
22:44 59.1 °F 45.7 °F 30.07 in Calm   4.0 mph 61% 0.00 in
22:49 58.5 °F 45.5 °F 30.07 in Calm     62% 0.00 in
22:54 57.7 °F 45.6 °F 30.07 in Calm     64% 0.00 in
22:59 57.5 °F 45.8 °F 30.07 in Calm     65% 0.00 in
23:04 57.2 °F 45.9 °F 30.07 in Calm     66% 0.00 in
23:09 56.5 °F 45.7 °F 30.07 in Calm     67% 0.00 in
23:14 56.4 °F 45.6 °F 30.07 in Calm     67% 0.00 in
23:19 56.6 °F 45.8 °F 30.07 in Calm     67% 0.00 in
23:24 56.6 °F 45.8 °F 30.07 in Calm     67% 0.00 in
23:29 56.8 °F 45.6 °F 30.07 in Calm     66% 0.00 in
23:34 56.8 °F 45.6 °F 30.07 in Calm     66% 0.00 in
23:39 56.7 °F 45.9 °F 30.07 in Calm     67% 0.00 in
23:44 56.6 °F 46.2 °F 30.07 in Calm     68% 0.00 in
23:49 56.4 °F 46.4 °F 30.07 in Calm     69% 0.00 in
23:54 56.0 °F 46.0 °F 30.07 in Calm     69% 0.00 in
23:59 55.5 °F 46.2 °F 30.07 in Calm     71% 0.00 in
Buffalo, New York, USA
Compliments of Weather Underground - 2.5 mb